FORMOSAT-2 (ROCSAT 2)

Last updated on Thu Dec 02 2021 00:02:25 GMT+0000 (Coordinated Universal Time)

1 28254U 04018A 21335.56765925 .00000359 00000+0 26882-3 0 9998 2 28254 98.6717 349.1536 0000742 263.0938 205.6468 14.00709245896530
UTC large
Height (km)
Speed (km/s)
/
Latitude / Longitude
Inclination (degrees)
Orbital Period (minutes)
Azimuth
Elevation
Range (km)
Doppler Factor

Next 0 passes for location: London (51.5072 / 0.1276)

Sorry there are no passes over London.